This demonstration page uses our WeatherBlox Daily Observations layout. Learn more.

Left ArrowRight Arrow

Hourly Observations for April 22, 2021

Temp ( °F °C ) Dew Point ( °F °C ) Humidity (%) Winds ( mph kmh ) Pressure ( in mb ) Visibility ( mi km ) Precip ( " mm )
12:53 am 00:53 Clear 34 1.1 21 -6.1 59 59 SSW 3 6 30.20 1023 10 16 0.00 0.00
1:53 am 01:53 Clear 33 0.6 22 -5.6 64 64 SW 3 6 30.19 1022 10 16 0.00 0.00
2:53 am 02:53 Clear 33 0.6 21 -6.1 61 61 SSW 6 9 30.16 1022 10 16 0.00 0.00
3:53 am 03:53 Clear 33 0.6 22 -5.6 64 64 SSW 8 13 30.16 1021 10 16 0.00 0.00
4:53 am 04:53 Cloudy 34 1.1 23 -5 64 64 SSW 7 11 30.14 1021 10 16 0.00 0.00
5:53 am 05:53 Cloudy 34 1.1 26 -3.3 73 73 S 5 7 30.14 1021 10 16 0.00 0.00
6:53 am 06:53 Cloudy 36 2.2 26 -3.3 67 67 S 7 11 30.14 1021 10 16 0.00 0.00
7:53 am 07:53 Cloudy 37 2.8 26 -3.3 65 65 S 8 13 30.15 1021 10 16 0.00 0.00
8:53 am 08:53 Cloudy 41 5 27 -2.8 57 57 S 9 15 30.14 1021 10 16 0.00 0.00
9:53 am 09:53 Cloudy 44 6.7 28 -2.2 53 53 S 10 17 30.13 1020 10 16 0.00 0.00
10:53 am 10:53 Mostly Cloudy 48 8.9 27 -2.8 44 44 S 15 24 30.11 1020 10 16 0.00 0.00
11:53 am 11:53 Mostly Cloudy 49 9.4 27 -2.8 43 43 S 17 28 30.10 1019 10 16 0.00 0.00
12:53 pm 12:53 Cloudy 49 9.4 28 -2.2 44 44 S 10 17 30.05 1018 10 16 0.00 0.00
1:53 pm 13:53 Cloudy 49 9.4 28 -2.2 44 44 SSE 14 22 30.01 1016 10 16 0.00 0.00
2:53 pm 14:53 Partly Cloudy 53 11.7 28 -2.2 38 38 S 18 30 29.96 1015 10 16 0.00 0.00
3:53 pm 15:53 Cloudy 53 11.7 29 -1.7 40 40 S 21 33 29.92 1013 10 16 0.00 0.00
4:53 pm 16:53 Cloudy 52 11.1 29 -1.7 41 41 S 22 35 29.91 1013 10 16 0.00 0.00
5:53 pm 17:53 Cloudy 52 11.1 30 -1.1 43 43 S 16 26 29.91 1013 10 16 0.00 0.00
6:53 pm 18:53 Mostly Cloudy 52 11.1 31 -0.6 45 45 S 16 26 29.88 1012 10 16 0.00 0.00
7:53 pm 19:53 Sunny 50 10 30 -1.1 46 46 SSE 17 28 29.86 1011 10 16 0.00 0.00
8:53 pm 20:53 Clear 47 8.3 31 -0.6 54 54 SSE 12 19 29.87 1012 10 16 0.00 0.00
9:53 pm 21:53 Clear 46 7.8 30 -1.1 54 54 S 15 24 29.88 1012 10 16 0.00 0.00
10:53 pm 22:53 Clear 45 7.2 30 -1.1 56 56 S 15 24 29.87 1012 10 16 0.00 0.00
11:53 pm 23:53 Clear 43 6.1 31 -0.6 63 63 SSE 13 20 29.87 1012 10 16 0.00 0.00

Powered by AerisWeather